Regional Weather Roundup
Issued by NWS

Home | Current Version | Previous Version | Graphics & Text | Print | Product List | Glossary On
Versions: 1 2 3 4 5 6 7 8 9 10 11 12 13 14 15 16 17 18 19 20 21 22 23 24 25 26 27 28
000
ASUS45 KBOU 240707
RWRCO

WEATHER ROUNDUP FOR COLORADO
NATIONAL WEATHER SERVICE DENVER/BOULDER CO
100 AM MDT SAT JUN 24 2017

NOTE: "FAIR" INDICATES FEW OR NO CLOUDS BELOW 12000 FEET WITH NO
SIGNIFICANT WEATHER AND/OR OBSTRUCTIONS TO VISIBILITY.

COZ001>005-013-030-031-240800-
...NORTHWEST COLORADO...

CITY           SKY/WX    TMP DP  RH WIND       PRES   REMARKS
CRAIG          FAIR      50  36  58 NE3       30.25R
HAYDEN         FAIR      52  32  46 E9        30.26R
MEEKER         FAIR      52  35  52 E5        30.27R
RABBIT EARS PA FAIR      48  27  43 W10       30.51S
STEAMBOAT SPGS FAIR      50  34  55 CALM      30.28S
WALDEN         FAIR      39  32  75 CALM      30.38S
$$

COZ006>008-011-240800-
...WEST CENTRAL VALLEYS...

CITY           SKY/WX    TMP DP  RH WIND       PRES   REMARKS
GRAND JUNCTION FAIR      72  19  13 NE6       30.08R
MONTROSE       FAIR      64  27  24 SE12      30.17R
EAGLE          FAIR      54  28  36 S3        30.29R
RIFLE          FAIR      62  29  28 SE9       30.18R
DELTA          FAIR      66  30  25 NE8       30.13R
NUCLA          NOT AVBL
$$

COZ017>023-064>068-240800-
...SOUTHWEST COLORADO...

CITY           SKY/WX    TMP DP  RH WIND       PRES   REMARKS
DURANGO        FAIR      57  20  23 CALM      30.21R
CORTEZ         FAIR      56  27  32 E5        30.17R
PAGOSA SPRINGS FAIR      56  17  21 CALM      30.30F
TELLURIDE      FAIR      55  22  27 SE10      30.44F
WOLF CREEK PAS FAIR      50  10  20 W7        30.68S
$$

COZ009-010-012-014-032>034-037-058>063-240800-
...CENTRAL COLORADO...

CITY           SKY/WX    TMP DP  RH WIND       PRES   REMARKS
ASPEN          FAIR      48  30  49 SW12      30.33R
BUENA VISTA    CLOUDY    51  44  77 SE8       30.45R
COPPER MTN     FAIR      46  14  27 W12       30.62S
BERTHOUD PASS  FAIR      37  27  65 NW20      30.62F
COTTONWOOD PAS FOG       46  45  93 CALM      30.52S VSB 3/4
GUNNISON       FAIR      50  32  50 CALM      30.33R
KREMMLING      NOT AVBL
LEADVILLE      CLOUDY    42  40  92 S8        30.49R FOG
MONARCH PASS   FAIR      50  21  32 NW10      30.73S
SALIDA         CLOUDY    53  47  80 CALM      30.50S
SUNLIGHT       FAIR      52  18  25 CALM      30.56F
WILKERSON PASS FAIR      39  28  65 E7        30.61S
$$

COZ069>075-240800-
...SAN LUIS VALLEY/SANGRE DE CRISTO MOUNTAINS...

CITY           SKY/WX    TMP DP  RH WIND       PRES   REMARKS
ALAMOSA        FAIR      52  44  74 SE14      30.31R
DEL NORTE      FAIR      58  22  24 SW6       30.34R
LA VETA PASS   RAIN      41  41 100 N15       30.62F VSB<1/4
SAGUACHE       FAIR      55  21  26 N10       30.33R
$$

COZ035-036-038>040-240800-
...NORTHERN COLORADO FRONT RANGE...

CITY           SKY/WX    TMP DP  RH WIND       PRES   REMARKS
DENVER INTL AP FAIR      52  46  80 SW9       30.33F
DMNS CITY PARK   N/A     52  48  87 SE9       30.33F
AURORA         PTCLDY    49  47  96 S6        30.35F
FRONT RANGE AP FAIR      50  46  87 S7        30.35S
ERIE MUNI ARPT MOCLDY    51  48  90 SW5       30.32F
BOULDER MUN AP CLOUDY    54  46  76 CALM      30.32F
CENTENNIAL     FAIR      50  47  89 CALM      30.35F
BROOMFIELD     FAIR      50  46  87 W3        30.34F
FORT COLLINS   MOCLDY    53  48  83 S8        30.31F
LONGMONT       FAIR      57  50  76 SW5       30.33F
$$

COZ041-046-047-076>085-087-088-240800-
...PIKES PEAK/PALMER DIVIDE AND SOUTHERN FOOTHILLS...

CITY           SKY/WX    TMP DP  RH WIND       PRES   REMARKS
COLO. SPRINGS  CLOUDY    56  48  74 SE3       30.39S
A. F. ACADEMY  CLOUDY    54  48  82 S6        30.38F
SCHRIEVER AFB  CLOUDY    55  46  71 S3        30.39S
CHEYENNE MTN   CLOUDY    50  47  88 S6        30.35S
ELLICOTT       CLOUDY     1   1 100 VRB3      30.37S
FALCON           N/A     53  45  75 S12       30.42S
FORT CARSON    CLOUDY    57  48  73 CALM      30.37R
LIMON          CLOUDY    51  43  74 CALM      30.35S
MONUMENT HILL  CLOUDY    46  45  93 S5        30.41F
CANON CITY     CLOUDY    59  54  82 CALM      30.35S
WALSENBURG     NOT AVBL
TRINIDAD       CLOUDY    59  46  62 NW7       30.35S
$$

COZ042>045-048>051-090-091-240800-
...NORTHEAST COLORADO...

CITY           SKY/WX    TMP DP  RH WIND       PRES   REMARKS
GREELEY ARPT   FAIR      55  51  86 E5        30.32S
AKRON          CLOUDY    57  44  62 NE3       30.32R
BURLINGTON     FAIR      51  48  89 W8        30.29S
WRAY           FAIR      52  43  71 NE7       30.27S
YUMA           FAIR      54  43  66 N6        30.29S
STERLING       CLOUDY    55  46  71 CALM      30.28S
HOLYOKE        NOT AVBL
FORT MORGAN    CLOUDY    60  47  64 N7        30.31F
$$

COZ086-089-092>099-240800-
...SOUTHEAST COLORADO...

CITY           SKY/WX    TMP DP  RH WIND       PRES   REMARKS
PUEBLO         CLOUDY    61  52  72 W3        30.32R
LA JUNTA       CLOUDY    66  47  50 E6        30.30R
LAMAR          CLOUDY    64  48  56 SW5       30.27S
SPRINGFIELD      N/A     60  49  66 CALM      30.29F
$$




USA.gov is the U.S. government's official web portal to all federal, state and local government web resources and services.